This demonstration page uses our WeatherBlox Daily Observations layout. Learn more.

38.89511, -77.03637

Hourly Observations for December 17, 2016

Temp ( °F °C ) Dew Point ( °F °C ) Humidity (%) Winds ( mph kmh ) Pressure ( in mb ) Visibility ( mi km ) Precip ( " mm )
12:52 am 00:52 Cloudy 30 -1.1 9 -12.8 41 41 S 13 20 30.28 1025 10 16.0934 0 0
1:52 am 01:52 Cloudy 30 -1.1 7 -13.9 38 38 S 13 20 30.26 1025 10 16.0934 0 0
2:52 am 02:52 Cloudy 31 -0.6 10 -12.2 42 42 S 14 22 30.23 1024 10 16.0934 0 0
3:28 am 03:28 Cloudy with Light Snow 30 -1 16 -9 55 55 S 16 26 30.18 1022 10 16.0934 0 0
3:52 am 03:52 Cloudy with Light Snow 30 -1.1 19 -7.2 64 64 S 17 28 30.15 1021 9 14.48406 0 0.0254
4:52 am 04:52 Cloudy 28 -2.2 24 -4.4 85 85 SW 10 17 30.15 1021 9 14.48406 0 0.0254
5:22 am 05:22 Cloudy with Light Freezing Rain 28 -2.2 26 -3.3 92 92 S 9 15 30.12 1020 4 6.43736 0.01 0.254
5:36 am 05:36 Cloudy with Light Freezing Rain 28 -2.2 26 -3.3 92 92 S 13 20 30.09 1019 4 6.43736 0.03 0.762
5:52 am 05:52 Cloudy with Light Freezing Rain 28 -2.2 26 -3.3 92 92 S 12 19 30.08 1019 6 9.65604 0.03 0.762
5:56 am 05:56 Cloudy with Light Freezing Rain 28 -2 27 -3 93 93 S 12 19 30.09 1019 7 11.26538 0 0
6:12 am 06:12 Cloudy with Light Freezing Rain 28 -2 27 -3 93 93 S 13 20 30.06 1018 9 14.48406 0 0
6:29 am 06:29 Cloudy with Freezing Rain 29 -1.7 27 -2.8 92 92 S 15 24 30.06 1018 5 8.0467 0.02 0.508
6:31 am 06:31 Cloudy with Freezing Rain 29 -1.7 27 -2.8 92 92 S 16 26 30.06 1018 4 6.43736 0.02 0.508
6:39 am 06:39 Cloudy with Light Freezing Rain 29 -1.7 27 -2.8 92 92 SSW 14 22 30.06 1018 4 6.43736 0.03 0.762
6:52 am 06:52 Cloudy with Light Freezing Rain 28 -2.2 26 -3.3 92 92 SSW 14 22 30.05 1018 5 8.0467 0.03 0.762
7:07 am 07:07 Cloudy with Light Freezing Rain 28 -2 27 -3 93 93 SSW 12 19 30.06 1018 9 14.48406 0 0
7:38 am 07:38 Cloudy with Light Freezing Rain 28 -2 27 -3 93 93 SSW 8 13 30.06 1018 2 3.21868 0 0
7:42 am 07:42 Cloudy with Light Freezing Rain 28 -2 27 -3 93 93 SSW 8 13 30.06 1018 3 4.82802 0 0
7:52 am 07:52 Cloudy with Light Freezing Rain 29 -1.7 27 -2.8 92 92 SW 9 15 30.06 1018 7 11.26538 0.05 1.27
8:16 am 08:16 Cloudy with Light Freezing Rain 28 -2 27 -3 93 93 S 7 11 30.06 1018 4 6.43736 0 0
8:23 am 08:23 Cloudy with Light Freezing Rain 30 -1.1 28 -2.2 92 92 SSE 9 15 30.03 1017 2 3.21868 0.07 1.778
8:36 am 08:36 Cloudy with Light Freezing Rain 30 -1 28 -2 93 93 S 13 20 30.03 1017 3 4.82802 0 0
8:52 am 08:52 Cloudy with Light Freezing Rain 30 -1.1 28 -2.2 92 92 S 13 20 30.02 1017 8 12.87472 0.14 3.556
9:32 am 09:32 Cloudy 30 -1 28 -2 93 93 S 8 13 30.03 1017 10 16.0934 0 0
9:52 am 09:52 Cloudy 31 -0.6 29 -1.7 92 92 SSW 9 15 30.01 1016 10 16.0934 0.01 0.254
10:52 am 10:52 Cloudy 32 0 31 -0.6 96 96 SSW 9 15 29.99 1016 10 16.0934 0 0
11:52 am 11:52 Cloudy 33 0.6 32 0 96 96 SSW 9 15 29.96 1014 8 12.87472 0 0
12:10 pm 12:10 Cloudy 34 1 32 0 93 93 S 8 13 29.94 1014 8 12.87472 0 0
12:37 pm 12:37 Cloudy 34 1.1 33 0.6 97 97 SW 9 15 29.94 1014 8 12.87472 0 0
12:52 pm 12:52 Cloudy 34 1.1 33 0.6 97 97 SSW 7 11 29.93 1014 8 12.87472 0 0
1:20 pm 13:20 Cloudy 36 2 34 1 93 93 S 7 11 29.91 1013 7 11.26538 0 0
1:37 pm 13:37 Cloudy 35 1.7 34 1.1 96 96 S 7 11 29.91 1013 7 11.26538 0 0
1:52 pm 13:52 Cloudy 36 2.2 35 1.7 97 97 S 5 7 29.91 1013 8 12.87472 0 0
2:16 pm 14:16 Mostly Cloudy 37 3 36 2 93 93 S 6 9 29.91 1013 8 12.87472 0 0
2:52 pm 14:52 Mostly Cloudy 40 4.4 39 3.9 97 97 SSE 6 9 29.9 1013 9 14.48406 0 0
3:52 pm 15:52 Mostly Cloudy 43 6.1 41 5 93 93 Calm 29.9 1012 10 16.0934 0 0
4:52 pm 16:52 Mostly Cloudy 42 5.6 39 3.9 89 89 Calm 29.89 1012 10 16.0934 0 0
5:52 pm 17:52 Mostly Cloudy 40 4.4 40 4.4 100 100 NNE 6 9 29.9 1012 9 14.48406 0 0
6:52 pm 18:52 Partly Cloudy 39 3.9 38 3.3 96 96 NE 9 15 29.92 1013 7 11.26538 0 0
7:52 pm 19:52 Partly Cloudy with Mist and Fog 37 2.8 37 2.8 100 100 NNE 6 9 29.93 1013 6 9.65604 0 0
8:52 pm 20:52 Partly Cloudy with Mist and Fog 37 2.8 36 2.2 96 96 NNE 5 7 29.91 1013 6 9.65604 0 0
9:52 pm 21:52 Mostly Cloudy with Mist and Fog 37 2.8 36 2.2 96 96 Calm 29.89 1012 6 9.65604 0 0
10:27 pm 22:27 Cloudy 38 3.3 36 2.2 93 93 Calm 29.91 1013 7 11.26538 0 0
10:52 pm 22:52 Cloudy 43 6.1 41 5 93 93 Calm 29.9 1012 9 14.48406 0 0
11:52 pm 23:52 Cloudy 48 8.9 47 8.3 96 96 S 13 20 29.88 1012 10 16.0934 0 0

Powered by AerisWeather